Location: M?digepalle
(16.1753°N, 80.3496°E)
Time: 08:41:54
(UTC+00:00)

Fermi - Pass Details

Date: 29 October 2020
Orbit: 523 x 540 km, 25.6° (Epoch: 27 November)

Event Time Altitude Azimuth Distance (km) Brightness Sun altitude
Rises 13:02:24 0° 260° (W) 2,653 9.4 -13.2°
Reaches altitude 10° 13:04:43 10° 266° (W) 1,760 7.8 -13.8°
Maximum altitude 13:08:41 50° 342° (NNW) 669 4.2 -14.7°
Enters shadow 13:10:52 24° 48° (NE) 1,123 4.9 -15.2°
